Weather History for KJMR - March, 2013

Change the Weather History Date:

Monday, March 18, 2013

  Actual Average (KSTC) Record (KSTC)
Temperature  
Mean Temperature 19 °F 30 °F  
Max Temperature 26 °F 40 °F 75 °F (2012)
Min Temperature 12 °F 21 °F -12 °F (1941)
Degree Days  
Heating Degree Days 46 35  
Month to date heating degree days 696  
Since 1 July heating degree days 7142  
Cooling Degree Days 0 0  
Month to date cooling degree days 0  
Year to date cooling degree days 0  
Moisture  
Dew Point 14 °F    
Average Humidity 74    
Maximum Humidity 93    
Minimum Humidity 63    
Precipitation  
Precipitation 0.04 in 0.05 in 1.85 in (1903)
Month to date precipitation 0.78  
Year to date precipitation 2.02  
Snow  
Snow 0.00 in 0.30 in 8.80 in (1951)
Month to date snowfall 5.8  
Since 1 July snowfall 40.0  
Snow Depth -    
Sea Level Pressure  
Sea Level Pressure 29.65 in    
Wind  
Wind Speed 11 mph (SW)    
Max Wind Speed 18 mph    
Max Gust Speed 29 mph    
Visibility 8 miles    
Events Snow    
T = Trace of Precipitation, MM = Missing Value Source: NWS Daily Summary

Daily Weather History Graph

Daily Weather History Graph

Search for Another Location

Airport or City:

Trip Planner

Search our weather history database for the weather conditions in past years. The results will help you decide how hot, cold, wet, or windy it might be!

Date:

Astronomy

Mar. 18, 2013 Rise Set
Actual Time 7:19 AM CDT 7:23 PM CDT
Civil Twilight 6:49 AM CDT 7:53 PM CDT
Nautical Twilight 6:14 AM CDT 8:28 PM CDT
Astronomical Twilight 5:39 AM CDT 9:03 PM CDT
Moon 11:01 AM CDT (3/18) 1:40 AM CDT (3/18)
Length of Visible Light 13h 03m
Length of Day
12h 03m
Waxing Crescent, 41% of the Moon is Illuminated
Mar 18
Waxing Crescent
Mar 19
First Quarter
Mar 27
Full
Apr 2
Last Quarter
Apr 10
New

Hourly Weather History & Observations

Time (CDT) Temp. Windchill Dew Point Humidity Pressure Visibility Wind Dir Wind Speed Gust Speed Precip Events Conditions
12:12 AM 21.2 °F 12.6 °F 10.4 °F 63% 29.86 in 10.0 mi ESE 6.9 mph - N/A   Overcast
12:32 AM 21.2 °F 10.9 °F 12.2 °F 68% 29.85 in 10.0 mi SE 9.2 mph - N/A   Overcast
12:52 AM 23.0 °F 13.1 °F 14.0 °F 68% 29.83 in 10.0 mi SE 9.2 mph 17.3 mph N/A   Overcast
1:12 AM 24.8 °F 14.0 °F 14.0 °F 64% 29.81 in 10.0 mi SE 11.5 mph 17.3 mph N/A   Overcast
1:32 AM 24.8 °F 13.4 °F 15.8 °F 69% 29.79 in 10.0 mi SE 12.7 mph 19.6 mph N/A   Overcast
1:52 AM 24.8 °F 16.1 °F 15.8 °F 69% 29.77 in 10.0 mi SE 8.1 mph 18.4 mph N/A   Overcast
2:11 AM 24.8 °F 14.6 °F 15.8 °F 69% 29.76 in 10.0 mi SE 10.4 mph 16.1 mph N/A   Overcast
2:32 AM 24.8 °F 13.4 °F 15.8 °F 69% 29.75 in 10.0 mi SE 12.7 mph - N/A   Overcast
2:52 AM 24.8 °F 16.1 °F 17.6 °F 74% 29.74 in 10.0 mi SE 8.1 mph - N/A   Overcast
3:12 AM 24.8 °F 15.3 °F 17.6 °F 74% 29.75 in 10.0 mi SSE 9.2 mph - N/A   Overcast
3:32 AM 24.8 °F 16.1 °F 17.6 °F 74% 29.74 in 10.0 mi SSE 8.1 mph - N/A   Overcast
3:52 AM 24.8 °F 16.1 °F 17.6 °F 74% 29.73 in 4.0 mi SSE 8.1 mph 18.4 mph N/A Snow Light Snow
4:12 AM 24.8 °F 16.9 °F 19.4 °F 80% 29.72 in 0.8 mi SSE 6.9 mph 16.1 mph 0.01 in Snow Snow
4:32 AM 23.0 °F 14.7 °F 19.4 °F 86% 29.70 in 0.5 mi SE 6.9 mph - 0.02 in Snow Heavy Snow
4:52 AM 23.0 °F 13.9 °F 19.4 °F 86% 29.69 in 0.8 mi SE 8.1 mph - 0.02 in Snow Snow
5:12 AM 23.0 °F 14.7 °F 19.4 °F 86% 29.68 in 1.5 mi SE 6.9 mph - 0.01 in Snow Light Snow
5:31 AM 23.0 °F 13.9 °F 19.4 °F 86% 29.67 in 2.0 mi SE 8.1 mph - 0.01 in Snow Light Snow
5:52 AM 23.0 °F 12.4 °F 19.4 °F 86% 29.66 in 3.0 mi SE 10.4 mph - 0.01 in Snow Light Snow
6:11 AM 23.0 °F 13.9 °F 19.4 °F 86% 29.65 in 2.0 mi SE 8.1 mph - N/A Snow Light Snow
6:32 AM 23.0 °F 13.1 °F 19.4 °F 86% 29.64 in 3.0 mi SE 9.2 mph - N/A Snow Light Snow
6:52 AM 23.0 °F 12.4 °F 19.4 °F 86% 29.63 in 2.5 mi SE 10.4 mph - N/A Snow Light Snow
7:12 AM 23.0 °F 13.1 °F 19.4 °F 86% 29.62 in 1.2 mi SE 9.2 mph - 0.01 in Snow Light Snow
7:32 AM 23.0 °F 13.9 °F 19.4 °F 86% 29.61 in 2.0 mi SSE 8.1 mph - 0.01 in Snow Light Snow
7:52 AM 23.0 °F 13.1 °F 19.4 °F 86% 29.60 in 5.0 mi SE 9.2 mph 16.1 mph 0.01 in   Overcast
8:12 AM 23.0 °F 12.4 °F 21.2 °F 93% 29.59 in 5.0 mi SSE 10.4 mph - N/A   Overcast
8:32 AM 24.8 °F 16.1 °F 21.2 °F 86% 29.58 in 4.0 mi SE 8.1 mph - N/A   Overcast
8:52 AM 24.8 °F 16.1 °F 21.2 °F 86% 29.57 in 2.5 mi SSE 8.1 mph - N/A Snow Light Snow
9:12 AM 24.8 °F 15.3 °F 21.2 °F 86% 29.56 in 3.0 mi SE 9.2 mph - N/A Snow Light Snow
9:32 AM 24.8 °F 16.9 °F 21.2 °F 86% 29.56 in 4.0 mi SSE 6.9 mph - N/A Snow Light Snow
9:52 AM 26.6 °F 18.2 °F 23.0 °F 86% 29.56 in 5.0 mi SSE 8.1 mph - N/A   Overcast
10:12 AM 26.6 °F 17.5 °F 23.0 °F 86% 29.56 in 5.0 mi SSE 9.2 mph - N/A   Overcast
10:32 AM 26.6 °F 17.5 °F 23.0 °F 86% 29.56 in 4.0 mi SSE 9.2 mph - N/A   Overcast
10:52 AM 26.6 °F 14.3 °F 23.0 °F 86% 29.56 in 2.5 mi WSW 16.1 mph 23.0 mph N/A   Overcast
11:12 AM 24.8 °F 14.0 °F 21.2 °F 86% 29.57 in 2.0 mi WSW 11.5 mph 19.6 mph N/A   Overcast
11:32 AM 23.0 °F 11.1 °F 19.4 °F 86% 29.57 in 5.0 mi WSW 12.7 mph 19.6 mph N/A   Overcast
11:52 AM 21.2 °F 8.9 °F 17.6 °F 86% 29.58 in 10.0 mi West 12.7 mph 19.6 mph N/A   Overcast
12:12 PM 21.2 °F 9.5 °F 15.8 °F 80% 29.58 in 10.0 mi WSW 11.5 mph 21.9 mph N/A   Overcast
12:31 PM 24.8 °F 12.4 °F 17.6 °F 74% 29.58 in 10.0 mi WSW 15.0 mph 18.4 mph N/A   Overcast
12:52 PM 21.2 °F 6.4 °F 14.0 °F 74% 29.58 in 10.0 mi West 18.4 mph 21.9 mph N/A   Overcast
1:12 PM 21.2 °F 7.3 °F 12.2 °F 68% 29.59 in 10.0 mi WSW 16.1 mph 23.0 mph N/A   Overcast
1:32 PM 21.2 °F 8.3 °F 10.4 °F 63% 29.59 in 10.0 mi WSW 13.8 mph 21.9 mph N/A   Overcast
1:52 PM 21.2 °F 7.3 °F 10.4 °F 63% 29.58 in 10.0 mi West 16.1 mph 21.9 mph N/A   Overcast
2:12 PM 21.2 °F 7.8 °F 10.4 °F 63% 29.58 in 10.0 mi WSW 15.0 mph 19.6 mph N/A   Overcast
2:32 PM 19.4 °F 5.0 °F 10.4 °F 68% 29.58 in 10.0 mi WSW 16.1 mph 23.0 mph N/A   Overcast
2:52 PM 19.4 °F 5.5 °F 8.6 °F 63% 29.58 in 10.0 mi West 15.0 mph 21.9 mph N/A   Overcast
3:12 PM 19.4 °F 6.0 °F 8.6 °F 63% 29.59 in 10.0 mi West 13.8 mph 20.7 mph N/A   Overcast
3:32 PM 19.4 °F 6.0 °F 8.6 °F 63% 29.59 in 10.0 mi WSW 13.8 mph 19.6 mph N/A   Overcast
3:52 PM 19.4 °F 7.2 °F 8.6 °F 63% 29.59 in 10.0 mi West 11.5 mph 17.3 mph N/A   Overcast
4:12 PM 19.4 °F 6.0 °F 8.6 °F 63% 29.59 in 10.0 mi West 13.8 mph 24.2 mph N/A   Overcast
4:32 PM 21.2 °F 9.5 °F 10.4 °F 63% 29.59 in 10.0 mi West 11.5 mph 20.7 mph N/A   Overcast
4:52 PM 21.2 °F 10.1 °F 10.4 °F 63% 29.60 in 10.0 mi West 10.4 mph - N/A   Overcast
5:12 PM 19.4 °F 6.6 °F 8.6 °F 63% 29.60 in 10.0 mi West 12.7 mph 23.0 mph N/A Snow Light Snow
5:31 PM 19.4 °F 6.0 °F 10.4 °F 68% 29.61 in 10.0 mi West 13.8 mph 21.9 mph N/A Snow Light Snow
5:52 PM 19.4 °F 5.5 °F 10.4 °F 68% 29.61 in 10.0 mi West 15.0 mph 20.7 mph N/A Snow Light Snow
6:12 PM 19.4 °F 7.9 °F 10.4 °F 68% 29.62 in 7.0 mi West 10.4 mph 21.9 mph N/A Snow Light Snow
6:32 PM 19.4 °F 6.6 °F 10.4 °F 68% 29.62 in 10.0 mi West 12.7 mph 25.3 mph N/A Snow Light Snow
6:51 PM 19.4 °F 5.0 °F 10.4 °F 68% 29.62 in 10.0 mi West 16.1 mph 21.9 mph N/A   Overcast
7:12 PM 19.4 °F 6.6 °F 10.4 °F 68% 29.63 in 10.0 mi West 12.7 mph 19.6 mph N/A   Overcast
7:32 PM 17.6 °F 4.3 °F 8.6 °F 68% 29.64 in 10.0 mi West 12.7 mph 18.4 mph N/A   Overcast
7:52 PM 17.6 °F 2.2 °F 8.6 °F 68% 29.65 in 10.0 mi West 17.3 mph 20.7 mph N/A Snow Light Snow
8:12 PM 17.6 °F 2.2 °F 8.6 °F 68% 29.66 in 10.0 mi West 17.3 mph 26.5 mph N/A Snow Light Snow
8:32 PM 17.6 °F 5.7 °F 8.6 °F 68% 29.67 in 10.0 mi WNW 10.4 mph 23.0 mph N/A Snow Light Snow
8:52 PM 15.8 °F 1.4 °F 6.8 °F 68% 29.68 in 10.0 mi WNW 13.8 mph 25.3 mph N/A   Mostly Cloudy
9:12 PM 14.0 °F -0.8 °F 5.0 °F 67% 29.69 in 10.0 mi WNW 13.8 mph 23.0 mph N/A   Mostly Cloudy
9:32 PM 14.0 °F -2.0 °F 5.0 °F 67% 29.69 in 10.0 mi WNW 16.1 mph 21.9 mph N/A   Overcast
9:52 PM 14.0 °F -2.0 °F 5.0 °F 67% 29.70 in 10.0 mi WNW 16.1 mph 23.0 mph N/A   Scattered Clouds
10:12 PM 14.0 °F -2.5 °F 5.0 °F 67% 29.71 in 10.0 mi WNW 17.3 mph 24.2 mph N/A   Clear
10:52 PM 12.2 °F -4.3 °F 3.2 °F 67% 29.73 in 10.0 mi WNW 16.1 mph 28.8 mph N/A   Clear
11:12 PM 12.2 °F -3.1 °F 3.2 °F 67% 29.73 in 10.0 mi WNW 13.8 mph 26.5 mph N/A   Clear
11:32 PM 12.2 °F -3.7 °F 3.2 °F 67% 29.74 in 10.0 mi WNW 15.0 mph 23.0 mph N/A   Scattered Clouds
11:52 PM 12.2 °F -2.5 °F 3.2 °F 67% 29.74 in 10.0 mi WNW 12.7 mph 21.9 mph N/A   Scattered Clouds